TimeAKST,TemperatureF,Dew PointF,Humidity,Sea Level PressureIn,VisibilityMPH,Wind Direction,Wind SpeedMPH,Gust SpeedMPH,PrecipitationIn,Events,Conditions,WindDirDegrees,DateUTC
12:07 AM,-20.2,-25.6,76,29.48,6.0,SW,8.1,-,N/A,,Haze,230,2012-12-13 09:07:00
12:53 AM,-20.0,-27.0,70,29.49,3.0,SW,8.1,-,0.00,,Overcast,220,2012-12-13 09:53:00
1:53 AM,-20.0,-27.0,70,29.50,6.0,SW,11.5,-,0.00,,Haze,220,2012-12-13 10:53:00
2:25 AM,-20.2,-27.4,69,29.49,2.5,SW,11.5,-,0.00,,Overcast,230,2012-12-13 11:25:00
3:33 AM,-20.2,-27.4,69,29.49,6.0,SW,10.4,-,N/A,,Haze,220,2012-12-13 12:33:00
3:53 AM,-18.9,-26.0,70,29.50,5.0,SW,10.4,-,N/A,,Haze,230,2012-12-13 12:53:00
4:17 AM,-18.4,-25.6,70,29.49,3.0,SW,10.4,-,0.00,,Overcast,220,2012-12-13 13:17:00
4:25 AM,-18.4,-25.6,70,29.49,3.0,SW,9.2,-,0.00,,Haze,230,2012-12-13 13:25:00
4:53 AM,-18.9,-26.0,70,29.50,4.0,SSW,9.2,-,0.00,,Haze,210,2012-12-13 13:53:00
5:53 AM,-20.9,-27.0,73,29.50,10.0,SW,11.5,-,N/A,,Partly Cloudy,220,2012-12-13 14:53:00
6:53 AM,-22.0,-27.9,74,29.50,10.0,SSW,12.7,-,N/A,,Clear,210,2012-12-13 15:53:00
7:53 AM,-22.0,-29.0,70,29.50,6.0,SSW,13.8,-,N/A,,Haze,200,2012-12-13 16:53:00
8:05 AM,-22.0,-27.4,76,29.50,4.0,SSW,13.8,-,N/A,,Haze,210,2012-12-13 17:05:00
8:49 AM,-20.2,-27.4,69,29.50,5.0,SW,12.7,-,N/A,,Haze,220,2012-12-13 17:49:00
8:53 AM,-20.9,-27.9,70,29.51,5.0,SW,12.7,-,N/A,,Haze,220,2012-12-13 17:53:00
9:53 AM,-23.1,-29.0,74,29.51,7.0,SSW,12.7,-,N/A,,Partly Cloudy,210,2012-12-13 18:53:00
10:53 AM,-23.1,-29.9,70,29.52,10.0,SSW,11.5,-,N/A,,Clear,200,2012-12-13 19:53:00
11:53 AM,-23.1,-29.9,70,29.52,7.0,SSW,9.2,-,N/A,,Clear,200,2012-12-13 20:53:00
12:53 PM,-23.1,-29.9,70,29.53,9.0,SSW,12.7,-,N/A,,Clear,210,2012-12-13 21:53:00
1:53 PM,-23.1,-29.9,70,29.54,10.0,SSW,11.5,-,N/A,,Clear,210,2012-12-13 22:53:00
3:53 PM,-24.0,-29.9,74,29.54,10.0,South,9.2,-,N/A,,Clear,190,2012-12-14 00:53:00
4:53 PM,-23.1,-29.0,74,29.54,8.0,South,6.9,-,N/A,,Clear,180,2012-12-14 01:53:00
5:53 PM,-22.0,-29.0,70,29.53,8.0,South,10.4,-,N/A,,Clear,190,2012-12-14 02:53:00
6:53 PM,-22.0,-29.0,70,29.54,10.0,SSW,8.1,-,N/A,,Clear,200,2012-12-14 03:53:00
7:53 PM,-22.0,-29.0,70,29.54,8.0,South,8.1,-,N/A,,Clear,180,2012-12-14 04:53:00
8:53 PM,-22.0,-29.0,70,29.55,10.0,SSW,10.4,-,N/A,,Clear,200,2012-12-14 05:53:00
9:53 PM,-22.0,-29.0,70,29.55,10.0,SSW,11.5,-,N/A,,Clear,210,2012-12-14 06:53:00
10:53 PM,-20.0,-27.0,70,29.55,8.0,SSW,9.2,-,N/A,,Mostly Cloudy,210,2012-12-14 07:53:00
11:33 PM,-18.4,-25.6,70,29.55,8.0,SSW,8.1,-,N/A,,Mostly Cloudy,210,2012-12-14 08:33:00
11:53 PM,-18.0,-25.1,70,29.55,8.0,SSW,9.2,-,N/A,,Overcast,200,2012-12-14 08:53:00